Find Starlink 38242

NORAD ID: 100266 Int'l Des: 2026-181 Owner: SPXS Country: US Constellation: starlink operational

当前视图

正在加载3D地球...

About Starlink 38242

Starlink 38242 (NORAD 100266) is a starlink constellation satellite launched Aug 8, 2026 by SPXS of US. with a mass of 575.00 kg.

即将过境

Passes for default location (London). Set your location on the main map for personalized predictions.

高度历史

Loading altitude history...

两行轨道根数

1 A0266U 26181W 26263.87703596 .00166610 00000-0 10947-2 0 9999
2 A0266 97.2857 307.5502 0001313 85.7995 274.3421 15.75221993 8013
Epoch: Sep 20, 2026 • Age: 7 hours

当前状态

高度 368.8 km
远地点 / 近地点 N/A
速度 7.69 km/s
星下点 -63.41°S, 103.47°W
发射日期 Aug 8, 2026
运行时间 0.1 years
类型 internet

技术详情

分类 Payload
质量 575.00 kg
干质量 530.00 kg
长度 0.30 m
跨度 29.00 m
形状 ? Box + pan
制造商 SPXS
平台类型 Starlink V2MO
阶段状态 In Orbit
所有者/国家 SPXS/US

Most Searched